| time (UTC) | temp C | wind direction | speed KPH | gust KPH | rain 1hr cm | rain 24hr cm | rain mn cm | humidity % | barometer mb |
| 20260508233712 | 15 | 194 | 8.0 | 14.5 | 0.00 | 0.00 | 0.00 | 46 | 1015.4 |
| 20260508233212 | 15 | 195 | 3.2 | 12.9 | 0.00 | 0.00 | 0.00 | 47 | 1015.5 |
| 20260508232712 | 15 | 194 | 4.8 | 12.9 | 0.00 | 0.00 | 0.00 | 47 | 1015.6 |
| 20260508232212 | 15 | 194 | 4.8 | 14.5 | 0.00 | 0.00 | 0.00 | 47 | 1015.6 |
| 20260508231712 | 15 | 195 | 4.8 | 14.5 | 0.00 | 0.00 | 0.00 | 45 | 1015.5 |
| 20260508231212 | 15 | 196 | 4.8 | 14.5 | 0.00 | 0.00 | 0.00 | 45 | 1015.5 |
| 20260508230712 | 15 | 196 | 4.8 | 14.5 | 0.00 | 0.00 | 0.00 | 44 | 1015.5 |
| 20260508230212 | 15 | 195 | 6.4 | 14.5 | 0.00 | 0.00 | 0.00 | 45 | 1015.4 |
| 20260508225219 | 15 | 191 | 9.7 | 16.1 | 0.00 | 0.00 | 0.00 | 45 | 1015.3 |
| 20260508224723 | 15 | 198 | 4.8 | 16.1 | 0.00 | 0.00 | 0.00 | 46 | 1015.3 |
| 20260508224219 | 15 | 192 | 8.0 | 16.1 | 0.00 | 0.00 | 0.00 | 44 | 1015.3 |
| 20260508223719 | 15 | 197 | 4.8 | 20.9 | 0.00 | 0.00 | 0.00 | 45 | 1015.3 |
| 20260508223219 | 15 | 196 | 4.8 | 20.9 | 0.00 | 0.00 | 0.00 | 44 | 1015.3 |
| 20260508222719 | 15 | 201 | 8.0 | 16.1 | 0.00 | 0.00 | 0.00 | 44 | 1015.3 |
| 20260508222219 | 15 | 187 | 4.8 | 16.1 | 0.00 | 0.00 | 0.00 | 45 | 1015.2 |
| 20260508221719 | 15 | 195 | 9.7 | 16.1 | 0.00 | 0.00 | 0.00 | 45 | 1015.1 |
| 20260508221219 | 15 | 187 | 3.2 | 12.9 | 0.00 | 0.00 | 0.00 | 45 | 1015.1 |
| 20260508220720 | 16 | 192 | 3.2 | 12.9 | 0.00 | 0.00 | 0.00 | 48 | 1015.1 |
| 20260508220220 | 16 | 194 | 3.2 | 14.5 | 0.00 | 0.00 | 0.00 | 44 | 1015.1 |
| 20260508215720 | 16 | 194 | 6.4 | 16.1 | 0.00 | 0.00 | 0.00 | 45 | 1015.1 |
| 20260508215219 | 16 | 196 | 4.8 | 16.1 | 0.00 | 0.00 | 0.00 | 44 | 1015.3 |
| 20260508214719 | 16 | 196 | 3.2 | 12.9 | 0.00 | 0.00 | 0.00 | 43 | 1015.3 |
| 20260508214219 | 16 | 194 | 4.8 | 12.9 | 0.00 | 0.00 | 0.00 | 42 | 1015.4 |
| 20260508213719 | 16 | 189 | 3.2 | 9.7 | 0.00 | 0.00 | 0.00 | 41 | 1015.4 |
| 20260508213219 | 16 | 190 | 3.2 | 9.7 | 0.00 | 0.00 | 0.00 | 41 | 1015.3 |
| 20260508212338 | 16 | 191 | 4.8 | 14.5 | 0.00 | 0.00 | 0.00 | 41 | 1015.2 |
| 20260508211838 | 16 | 193 | 4.8 | 14.5 | 0.00 | 0.00 | 0.00 | 41 | 1015.1 |
| 20260508211338 | 16 | 193 | 3.2 | 12.9 | 0.00 | 0.00 | 0.00 | 40 | 1015.4 |
| 20260508210718 | 17 | 206 | 4.8 | 16.1 | 0.00 | 0.00 | 0.00 | 42 | 1015.6 |
| 20260508205717 | 17 | 187 | 8.0 | 17.7 | 0.00 | 0.00 | 0.00 | 38 | 1015.6 |
| 20260508205217 | 17 | 188 | 6.4 | 14.5 | 0.00 | 0.00 | 0.00 | 40 | 1015.6 |
| 20260508204717 | 17 | 192 | 3.2 | 12.9 | 0.00 | 0.00 | 0.00 | 42 | 1015.7 |
| 20260508204217 | 17 | 192 | 3.2 | 19.3 | 0.00 | 0.00 | 0.00 | 37 | 1016.0 |
| 20260508203717 | 17 | 183 | 6.4 | 19.3 | 0.00 | 0.00 | 0.00 | 39 | 1016.2 |
| 20260508203004 | 17 | 178 | 3.2 | 16.1 | 0.00 | 0.00 | 0.00 | 40 | 1016.2 |
| 20260508202504 | 17 | 178 | 4.8 | 16.1 | 0.00 | 0.00 | 0.00 | 41 | 1016.2 |
| 20260508202004 | 17 | 179 | 4.8 | 24.1 | 0.00 | 0.00 | 0.00 | 41 | 1016.2 |
| 20260508201504 | 17 | 182 | 8.0 | 24.1 | 0.00 | 0.00 | 0.00 | 40 | 1016.1 |
| 20260508201004 | 17 | 187 | 8.0 | 20.9 | 0.00 | 0.00 | 0.00 | 40 | 1016.3 |
| 20260508200504 | 17 | 189 | 8.0 | 14.5 | 0.00 | 0.00 | 0.00 | 40 | 1016.3 |
| 20260508195845 | 18 | 192 | 4.8 | 20.9 | 0.00 | 0.00 | 0.00 | 37 | 1016.3 |
| 20260508195346 | 18 | 182 | 4.8 | 19.3 | 0.00 | 0.00 | 0.00 | 42 | 1016.2 |
| 20260508194847 | 18 | 183 | 6.4 | 19.3 | 0.00 | 0.00 | 0.00 | 39 | 1016.3 |
| 20260508194345 | 17 | 184 | 9.7 | 19.3 | 0.00 | 0.03 | 0.00 | 39 | 1016.3 |
| 20260508193845 | 17 | 187 | 6.4 | 19.3 | 0.00 | 0.10 | 0.00 | 40 | 1016.5 |
| 20260508193345 | 17 | 181 | 3.2 | 16.1 | 0.00 | 0.10 | 0.00 | 43 | 1016.5 |
| 20260508192845 | 17 | 183 | 6.4 | 16.1 | 0.00 | 0.10 | 0.00 | 42 | 1016.7 |
| 20260508192345 | 17 | 192 | 6.4 | 14.5 | 0.00 | 0.10 | 0.00 | 41 | 1016.8 |
| 20260508191847 | 17 | 200 | 4.8 | 20.9 | 0.00 | 0.10 | 0.00 | 38 | 1016.9 |
| 20260508191345 | 18 | 181 | 9.7 | 20.9 | 0.00 | 0.10 | 0.00 | 38 | 1016.9 |
| 20260508190845 | 17 | 181 | 3.2 | 17.7 | 0.00 | 0.10 | 0.00 | 41 | 1017.0 |
| 20260508190345 | 17 | 170 | 3.2 | 17.7 | 0.00 | 0.10 | 0.00 | 40 | 1017.0 |
| 20260508185845 | 17 | 173 | 8.0 | 17.7 | 0.00 | 0.10 | 0.00 | 37 | 1017.0 |
| 20260508185345 | 18 | 174 | 6.4 | 16.1 | 0.00 | 0.13 | 0.00 | 41 | 1017.0 |
| 20260508184845 | 17 | 175 | 9.7 | 16.1 | 0.00 | 0.13 | 0.00 | 40 | 1017.0 |
| 20260508184345 | 17 | 184 | 6.4 | 14.5 | 0.00 | 0.13 | 0.00 | 40 | 1017.2 |
| 20260508183845 | 17 | 184 | 8.0 | 16.1 | 0.00 | 0.13 | 0.00 | 40 | 1017.2 |
| 20260508183345 | 17 | 173 | 6.4 | 17.7 | 0.00 | 0.13 | 0.00 | 41 | 1017.1 |
| 20260508182845 | 17 | 184 | 9.7 | 17.7 | 0.00 | 0.13 | 0.00 | 40 | 1017.2 |
| 20260508182345 | 17 | 194 | 9.7 | 14.5 | 0.00 | 0.13 | 0.00 | 37 | 1017.3 |
| 20260508181544 | 17 | 188 | 6.4 | 14.5 | 0.00 | 0.13 | 0.00 | 37 | 1017.5 |
| 20260508181044 | 17 | 177 | 4.8 | 14.5 | 0.00 | 0.13 | 0.00 | 42 | 1017.5 |
| 20260508180545 | 17 | 171 | 6.4 | 14.5 | 0.00 | 0.13 | 0.00 | 44 | 1017.7 |
| 20260508175820 | 17 | 164 | 3.2 | 16.1 | 0.00 | 0.13 | 0.00 | 45 | 1017.8 |
| 20260508175318 | 17 | 167 | 11.3 | 16.1 | 0.00 | 0.13 | 0.00 | 39 | 1017.8 |
| 20260508174818 | 17 | 189 | 3.2 | 14.5 | 0.00 | 0.13 | 0.00 | 39 | 1017.9 |
| 20260508174317 | 18 | 189 | 4.8 | 11.3 | 0.00 | 0.13 | 0.00 | 42 | 1017.9 |
| 20260508173818 | 17 | 174 | 3.2 | 11.3 | 0.00 | 0.13 | 0.00 | 49 | 1017.9 |
| 20260508173318 | 17 | 175 | 3.2 | 12.9 | 0.00 | 0.13 | 0.00 | 43 | 1017.9 |
| 20260508172821 | 17 | 172 | 6.4 | 14.5 | 0.00 | 0.13 | 0.00 | 42 | 1018.0 |
| 20260508172319 | 17 | 166 | 4.8 | 14.5 | 0.00 | 0.13 | 0.00 | 46 | 1018.0 |
| 20260508171819 | 17 | 166 | 4.8 | 9.7 | 0.00 | 0.18 | 0.00 | 39 | 1018.2 |
| 20260508171317 | 17 | 166 | 3.2 | 12.9 | 0.00 | 0.18 | 0.00 | 44 | 1018.2 |
| 20260508170817 | 17 | 166 | 4.8 | 12.9 | 0.00 | 0.18 | 0.00 | 41 | 1018.2 |
| 20260508170317 | 17 | 165 | 1.6 | 11.3 | 0.00 | 0.18 | 0.00 | 43 | 1018.3 |
| 20260508165823 | 16 | 0 | 0.0 | 9.7 | 0.00 | 0.18 | 0.00 | 45 | 1018.3 |
| 20260508165317 | 16 | 165 | 1.6 | 17.7 | 0.00 | 0.18 | 0.00 | 43 | 1018.4 |
| 20260508164818 | 16 | 166 | 6.4 | 17.7 | 0.00 | 0.18 | 0.00 | 37 | 1018.6 |
| 20260508164317 | 16 | 165 | 4.8 | 16.1 | 0.00 | 0.18 | 0.00 | 39 | 1018.7 |
| 20260508163818 | 17 | 170 | 6.4 | 14.5 | 0.00 | 0.18 | 0.00 | 45 | 1018.7 |
| 20260508163318 | 16 | 176 | 4.8 | 12.9 | 0.00 | 0.18 | 0.00 | 43 | 1018.7 |
| 20260508162820 | 16 | 0 | 0.0 | 11.3 | 0.00 | 0.18 | 0.00 | 48 | 1018.9 |
| 20260508162318 | 16 | 174 | 3.2 | 17.7 | 0.00 | 0.18 | 0.00 | 43 | 1018.9 |
| 20260508161819 | 16 | 172 | 4.8 | 17.7 | 0.00 | 0.18 | 0.00 | 44 | 1019.1 |
| 20260508161317 | 16 | 177 | 1.6 | 9.7 | 0.00 | 0.18 | 0.00 | 46 | 1019.2 |
| 20260508160818 | 16 | 0 | 0.0 | 11.3 | 0.00 | 0.18 | 0.00 | 48 | 1019.2 |
| 20260508160317 | 16 | 180 | 1.6 | 11.3 | 0.00 | 0.18 | 0.18 | 43 | 1019.3 |
| 20260508155822 | 16 | 0 | 0.0 | 3.2 | 0.00 | 0.18 | 0.18 | 51 | 1019.4 |
| 20260508155317 | 15 | 0 | 0.0 | 9.7 | 0.00 | 0.18 | 0.18 | 50 | 1019.4 |
| 20260508154819 | 15 | 0 | 0.0 | 9.7 | 0.00 | 0.18 | 0.18 | 49 | 1019.4 |
| 20260508154317 | 15 | 0 | 0.0 | 9.7 | 0.00 | 0.18 | 0.18 | 45 | 1019.5 |
| 20260508153818 | 15 | 0 | 0.0 | 9.7 | 0.00 | 0.18 | 0.18 | 44 | 1019.5 |
| 20260508153318 | 15 | 0 | 0.0 | 8.0 | 0.00 | 0.18 | 0.18 | 45 | 1019.5 |
| 20260508152821 | 15 | 0 | 0.0 | 8.0 | 0.00 | 0.18 | 0.18 | 46 | 1019.6 |
| 20260508152317 | 15 | 0 | 0.0 | 14.5 | 0.00 | 0.18 | 0.18 | 50 | 1019.6 |
| 20260508151818 | 15 | 324 | 3.2 | 14.5 | 0.00 | 0.18 | 0.18 | 46 | 1019.6 |
| 20260508151317 | 15 | 0 | 0.0 | 9.7 | 0.00 | 0.18 | 0.18 | 50 | 1019.6 |
| 20260508150817 | 14 | 0 | 0.0 | 6.4 | 0.00 | 0.18 | 0.18 | 41 | 1019.6 |
| 20260508150317 | 15 | 0 | 0.0 | 6.4 | 0.00 | 0.18 | 0.18 | 47 | 1019.6 |
| 20260508145819 | 15 | 0 | 0.0 | 6.4 | 0.00 | 0.18 | 0.18 | 50 | 1019.7 |
| 20260508145317 | 15 | 0 | 0.0 | 6.4 | 0.00 | 0.18 | 0.18 | 49 | 1019.8 |
| 20260508144818 | 15 | 0 | 0.0 | 0.0 | 0.00 | 0.18 | 0.18 | 52 | 1019.7 |
| 20260508144317 | 14 | 0 | 0.0 | 0.0 | 0.00 | 0.18 | 0.18 | 48 | 1019.7 |
| 20260508143817 | 13 | 0 | 0.0 | 0.0 | 0.00 | 0.18 | 0.18 | 45 | 1019.6 |
| 20260508143317 | 13 | 0 | 0.0 | 16.1 | 0.00 | 0.18 | 0.18 | 48 | 1019.7 |
| 20260508142819 | 13 | 0 | 0.0 | 16.1 | 0.00 | 0.18 | 0.18 | 52 | 1019.7 |
| 20260508142317 | 13 | 0 | 0.0 | 0.0 | 0.00 | 0.18 | 0.18 | 53 | 1019.6 |
| 20260508141818 | 12 | 0 | 0.0 | 6.4 | 0.00 | 0.18 | 0.18 | 51 | 1019.5 |
| 20260508141317 | 12 | 0 | 0.0 | 6.4 | 0.00 | 0.18 | 0.18 | 55 | 1019.4 |
| 20260508140818 | 12 | 0 | 0.0 | 4.8 | 0.00 | 0.18 | 0.18 | 54 | 1019.4 |
| 20260508140317 | 12 | 0 | 0.0 | 6.4 | 0.00 | 0.18 | 0.18 | 54 | 1019.4 |
| 20260508135818 | 12 | 0 | 0.0 | 8.0 | 0.00 | 0.18 | 0.18 | 56 | 1019.4 |
| 20260508135317 | 12 | 327 | 1.6 | 8.0 | 0.00 | 0.18 | 0.18 | 52 | 1019.4 |
| 20260508134818 | 12 | 0 | 0.0 | 16.1 | 0.00 | 0.18 | 0.18 | 54 | 1019.3 |
| 20260508134317 | 11 | 0 | 0.0 | 16.1 | 0.00 | 0.18 | 0.18 | 53 | 1019.3 |
| 20260508133817 | 11 | 327 | 1.6 | 9.7 | 0.00 | 0.18 | 0.18 | 52 | 1019.3 |
| 20260508133318 | 11 | 0 | 0.0 | 9.7 | 0.00 | 0.18 | 0.18 | 56 | 1019.2 |
| 20260508132823 | 11 | 327 | 1.6 | 9.7 | 0.00 | 0.18 | 0.18 | 53 | 1019.2 |
| 20260508132317 | 11 | 0 | 0.0 | 6.4 | 0.00 | 0.18 | 0.18 | 53 | 1019.1 |
| 20260508131818 | 11 | 0 | 0.0 | 8.0 | 0.00 | 0.18 | 0.18 | 54 | 1019.0 |
| 20260508131318 | 11 | 0 | 0.0 | 8.0 | 0.00 | 0.18 | 0.18 | 52 | 1019.0 |
| 20260508130817 | 11 | 0 | 0.0 | 6.4 | 0.00 | 0.18 | 0.18 | 57 | 1019.0 |
| 20260508130318 | 11 | 0 | 0.0 | 8.0 | 0.00 | 0.18 | 0.18 | 59 | 1019.0 |
| 20260508125825 | 10 | 327 | 1.6 | 9.7 | 0.00 | 0.18 | 0.18 | 57 | 1018.9 |
| 20260508125318 | 10 | 0 | 0.0 | 9.7 | 0.00 | 0.18 | 0.18 | 59 | 1018.9 |
| 20260508124819 | 10 | 327 | 3.2 | 8.0 | 0.00 | 0.18 | 0.18 | 61 | 1018.8 |
| 20260508123610 | 10 | 0 | 0.0 | 6.4 | 0.00 | 0.18 | 0.18 | 60 | 1018.7 |
| 20260508123107 | 10 | 0 | 0.0 | 4.8 | 0.00 | 0.18 | 0.18 | 63 | 1018.8 |
| 20260508122606 | 9 | 0 | 0.0 | 8.0 | 0.00 | 0.18 | 0.18 | 64 | 1018.7 |
| 20260508122107 | 9 | 328 | 3.2 | 8.0 | 0.00 | 0.20 | 0.18 | 62 | 1018.7 |
| 20260508121608 | 9 | 0 | 0.0 | 1.6 | 0.00 | 0.20 | 0.18 | 63 | 1018.7 |
| 20260508120337 | 9 | 0 | 0.0 | 9.7 | 0.00 | 0.20 | 0.18 | 66 | 1018.6 |
| 20260508115836 | 8 | 0 | 0.0 | 9.7 | 0.00 | 0.20 | 0.18 | 65 | 1018.4 |
| 20260508113958 | 8 | 0 | 0.0 | 0.0 | 0.00 | 0.20 | 0.18 | 67 | 1018.2 |
| 20260508113458 | 8 | 0 | 0.0 | 0.0 | 0.00 | 0.20 | 0.18 | 70 | 1018.1 |
| 20260508112958 | 8 | 0 | 0.0 | 4.8 | 0.00 | 0.20 | 0.18 | 68 | 1018.1 |
| 20260508112458 | 7 | 0 | 0.0 | 9.7 | 0.00 | 0.20 | 0.18 | 67 | 1018.0 |
| 20260508111958 | 7 | 0 | 0.0 | 14.5 | 0.00 | 0.20 | 0.18 | 69 | 1018.0 |
| 20260508111459 | 7 | 328 | 1.6 | 14.5 | 0.00 | 0.20 | 0.18 | 68 | 1017.8 |
| 20260508110958 | 7 | 328 | 3.2 | 20.9 | 0.00 | 0.20 | 0.18 | 68 | 1017.7 |
| 20260508110458 | 7 | 328 | 6.4 | 20.9 | 0.00 | 0.20 | 0.18 | 67 | 1017.6 |
| 20260508105958 | 7 | 328 | 4.8 | 19.3 | 0.00 | 0.20 | 0.18 | 67 | 1017.5 |
| 20260508105458 | 7 | 0 | 0.0 | 24.1 | 0.00 | 0.20 | 0.18 | 67 | 1017.5 |
| 20260508104958 | 7 | 328 | 1.6 | 24.1 | 0.00 | 0.20 | 0.18 | 67 | 1017.4 |
| 20260508104458 | 7 | 328 | 4.8 | 14.5 | 0.00 | 0.20 | 0.18 | 67 | 1017.3 |
| 20260508103958 | 7 | 329 | 4.8 | 14.5 | 0.00 | 0.20 | 0.18 | 67 | 1017.2 |
| 20260508103458 | 7 | 329 | 4.8 | 14.5 | 0.00 | 0.20 | 0.18 | 68 | 1017.2 |
| 20260508103000 | 7 | 330 | 4.8 | 14.5 | 0.00 | 0.20 | 0.18 | 68 | 1017.1 |
| 20260508102458 | 7 | 0 | 0.0 | 16.1 | 0.00 | 0.20 | 0.18 | 67 | 1017.0 |
| 20260508101959 | 7 | 0 | 0.0 | 41.8 | 0.00 | 0.20 | 0.18 | 68 | 1017.0 |
| 20260508101458 | 7 | 330 | 6.4 | 41.8 | 0.00 | 0.20 | 0.18 | 67 | 1016.9 |
| 20260508100737 | 7 | 329 | 11.3 | 25.7 | 0.00 | 0.20 | 0.18 | 68 | 1016.9 |
| 20260508100237 | 7 | 334 | 11.3 | 20.9 | 0.00 | 0.20 | 0.18 | 69 | 1016.7 |
| 20260508095739 | 7 | 333 | 6.4 | 19.3 | 0.00 | 0.20 | 0.18 | 71 | 1016.7 |
| 20260508095421 | 7 | 334 | 3.2 | 24.1 | 0.00 | 0.20 | 0.18 | 71 | 1016.5 |
| 20260508095237 | 7 | 334 | 1.6 | 19.3 | 0.00 | 0.20 | 0.18 | 70 | 1016.6 |
| 20260508094738 | 7 | 334 | 3.2 | 24.1 | 0.00 | 0.20 | 0.18 | 71 | 1016.5 |
| 20260508094237 | 7 | 331 | 8.0 | 25.7 | 0.00 | 0.20 | 0.18 | 71 | 1016.5 |
| 20260508093737 | 7 | 332 | 4.8 | 25.7 | 0.00 | 0.20 | 0.18 | 71 | 1016.4 |
| 20260508093237 | 7 | 331 | 12.9 | 22.5 | 0.00 | 0.20 | 0.18 | 72 | 1016.3 |
| 20260508092737 | 7 | 330 | 6.4 | 16.1 | 0.00 | 0.20 | 0.18 | 71 | 1016.2 |
| 20260508092551 | 7 | 327 | 4.8 | 16.1 | 0.00 | 0.20 | 0.18 | 73 | 1016.2 |
| 20260508092237 | 7 | 330 | 1.6 | 12.9 | 0.00 | 0.20 | 0.18 | 70 | 1016.3 |
| 20260508091237 | 7 | 331 | 1.6 | 20.9 | 0.00 | 0.20 | 0.18 | 72 | 1016.2 |
| 20260508090736 | 7 | 331 | 3.2 | 19.3 | 0.00 | 0.20 | 0.18 | 73 | 1016.1 |
| 20260508090236 | 7 | 327 | 4.8 | 16.1 | 0.00 | 0.20 | 0.18 | 73 | 1016.2 |
| 20260508085736 | 7 | 0 | 0.0 | 19.3 | 0.00 | 0.20 | 0.18 | 73 | 1016.2 |
| 20260508085236 | 7 | 0 | 0.0 | 20.9 | 0.00 | 0.20 | 0.18 | 73 | 1016.1 |
| 20260508084736 | 7 | 325 | 3.2 | 27.4 | 0.00 | 0.20 | 0.18 | 72 | 1016.0 |
| 20260508084236 | 7 | 323 | 8.0 | 27.4 | 0.00 | 0.20 | 0.18 | 72 | 1016.1 |
| 20260508083736 | 7 | 323 | 4.8 | 25.7 | 0.00 | 0.20 | 0.18 | 71 | 1016.1 |
| 20260508083236 | 7 | 323 | 11.3 | 25.7 | 0.00 | 0.20 | 0.18 | 72 | 1015.9 |
| 20260508082736 | 7 | 323 | 9.7 | 17.7 | 0.00 | 0.20 | 0.18 | 73 | 1015.8 |
| 20260508082238 | 7 | 324 | 3.2 | 16.1 | 0.00 | 0.20 | 0.18 | 73 | 1015.8 |
| 20260508081736 | 7 | 326 | 1.6 | 20.9 | 0.00 | 0.20 | 0.18 | 74 | 1015.8 |
| 20260508081237 | 8 | 326 | 3.2 | 20.9 | 0.00 | 0.20 | 0.18 | 73 | 1015.7 |
| 20260508081157 | 8 | 0 | 0.0 | 8.0 | 0.00 | 0.20 | 0.18 | 74 | 1015.5 |
| 20260508080500 | 8 | 328 | 6.4 | 29.0 | 0.00 | 0.20 | 0.18 | 73 | 1015.5 |
| 20260508080000 | 8 | 328 | 1.6 | 17.7 | 0.00 | 0.20 | 0.18 | 74 | 1015.6 |
| 20260508075500 | 8 | 328 | 1.6 | 17.7 | 0.00 | 0.20 | 0.18 | 74 | 1015.5 |
| 20260508075000 | 8 | 328 | 1.6 | 9.7 | 0.00 | 0.20 | 0.18 | 75 | 1015.5 |
| 20260508074500 | 8 | 0 | 0.0 | 8.0 | 0.00 | 0.20 | 0.18 | 74 | 1015.5 |
| 20260508073627 | 8 | 327 | 4.8 | 19.3 | 0.00 | 0.20 | 0.18 | 76 | 1015.2 |
| 20260508073557 | 8 | 327 | 3.2 | 17.7 | 0.00 | 0.20 | 0.18 | 75 | 1015.4 |
| 20260508073057 | 8 | 326 | 1.6 | 17.7 | 0.00 | 0.20 | 0.18 | 75 | 1015.3 |
| 20260508072559 | 8 | 323 | 4.8 | 17.7 | 0.00 | 0.20 | 0.18 | 74 | 1015.3 |
| 20260508072057 | 8 | 326 | 4.8 | 17.7 | 0.00 | 0.20 | 0.18 | 75 | 1015.2 |
| 20260508071558 | 8 | 327 | 4.8 | 19.3 | 0.00 | 0.20 | 0.18 | 76 | 1015.2 |
| 20260508071101 | 8 | 328 | 3.2 | 19.3 | 0.00 | 0.20 | 0.18 | 75 | 1015.2 |
| 20260508070557 | 8 | 326 | 8.0 | 19.3 | 0.00 | 0.20 | 0.18 | 76 | 1015.2 |
| 20260508070057 | 8 | 325 | 6.4 | 19.3 | 0.00 | 0.20 | 0.18 | 75 | 1015.1 |
| 20260508065558 | 8 | 327 | 4.8 | 27.4 | 0.00 | 0.20 | 0.18 | 76 | 1015.1 |
| 20260508065057 | 8 | 316 | 9.7 | 27.4 | 0.00 | 0.20 | 0.18 | 75 | 1015.1 |
| 20260508064255 | 9 | 319 | 6.4 | 16.1 | 0.00 | 0.20 | 0.18 | 74 | 1015.4 |
| 20260508063755 | 9 | 329 | 1.6 | 14.5 | 0.00 | 0.20 | 0.18 | 74 | 1015.4 |
| 20260508063256 | 9 | 340 | 1.6 | 16.1 | 0.00 | 0.20 | 0.18 | 74 | 1015.3 |
| 20260508062754 | 9 | 326 | 3.2 | 16.1 | 0.00 | 0.20 | 0.18 | 75 | 1015.1 |
| 20260508062301 | 9 | 0 | 0.0 | 12.9 | 0.00 | 0.20 | 0.18 | 76 | 1015.3 |
| 20260508061754 | 9 | 355 | 4.8 | 19.3 | 0.00 | 0.20 | 0.18 | 76 | 1015.3 |
| 20260508061254 | 9 | 356 | 4.8 | 19.3 | 0.00 | 0.20 | 0.18 | 76 | 1016.2 |
| 20260508060754 | 9 | 325 | 4.8 | 16.1 | 0.00 | 0.20 | 0.18 | 76 | 1016.2 |
| 20260508060256 | 9 | 353 | 4.8 | 16.1 | 0.00 | 0.20 | 0.18 | 76 | 1016.1 |
| 20260508055433 | 9 | 323 | 8.0 | 27.4 | 0.00 | 0.20 | 0.18 | 76 | 1016.2 |
| 20260508054931 | 9 | 345 | 11.3 | 27.4 | 0.00 | 0.20 | 0.18 | 77 | 1016.1 |
| 20260508054432 | 9 | 335 | 8.0 | 17.7 | 0.00 | 0.20 | 0.18 | 75 | 1016.0 |
| 20260508053931 | 9 | 334 | 6.4 | 14.5 | 0.00 | 0.20 | 0.18 | 77 | 1016.1 |
| 20260508053432 | 9 | 318 | 6.4 | 14.5 | 0.00 | 0.20 | 0.18 | 77 | 1016.1 |
| 20260508052739 | 9 | 326 | 6.4 | 16.1 | 0.00 | 0.20 | 0.18 | 78 | 1016.1 |
| 20260508051853 | 9 | 327 | 4.8 | 14.5 | 0.00 | 0.20 | 0.18 | 78 | 1016.1 |
| 20260508051352 | 9 | 327 | 4.8 | 14.5 | 0.00 | 0.20 | 0.18 | 77 | 1016.0 |
| 20260508050854 | 9 | 329 | 3.2 | 19.3 | 0.00 | 0.20 | 0.18 | 79 | 1016.0 |
| 20260508050354 | 9 | 329 | 4.8 | 19.3 | 0.00 | 0.23 | 0.18 | 77 | 1016.0 |
| 20260508045854 | 10 | 328 | 3.2 | 14.5 | 0.00 | 0.23 | 0.18 | 77 | 1016.0 |
| 20260508045353 | 10 | 322 | 4.8 | 14.5 | 0.00 | 0.23 | 0.18 | 77 | 1016.1 |
| 20260508044855 | 10 | 0 | 0.0 | 12.9 | 0.00 | 0.23 | 0.18 | 77 | 1016.1 |
| 20260508044354 | 9 | 0 | 0.0 | 12.9 | 0.00 | 0.23 | 0.18 | 77 | 1016.0 |
| 20260508043853 | 9 | 0 | 0.0 | 9.7 | 0.00 | 0.23 | 0.18 | 78 | 1015.8 |
| 20260508043236 | 9 | 0 | 0.0 | 17.7 | 0.00 | 0.23 | 0.18 | 78 | 1015.6 |
| 20260508042736 | 9 | 325 | 1.6 | 17.7 | 0.00 | 0.23 | 0.18 | 79 | 1015.7 |
| 20260508042236 | 9 | 0 | 0.0 | 9.7 | 0.00 | 0.23 | 0.18 | 78 | 1015.5 |
| 20260508041736 | 9 | 325 | 3.2 | 12.9 | 0.00 | 0.23 | 0.18 | 78 | 1015.4 |
| 20260508041236 | 9 | 325 | 4.8 | 16.1 | 0.00 | 0.23 | 0.18 | 78 | 1015.4 |
| 20260508040736 | 9 | 325 | 1.6 | 16.1 | 0.00 | 0.23 | 0.18 | 79 | 1015.3 |
| 20260508040236 | 10 | 324 | 3.2 | 12.9 | 0.00 | 0.23 | 0.18 | 78 | 1015.4 |
| 20260508035736 | 10 | 324 | 3.2 | 12.9 | 0.00 | 0.23 | 0.18 | 78 | 1015.4 |
| 20260508035236 | 10 | 325 | 1.6 | 9.7 | 0.00 | 0.23 | 0.18 | 77 | 1015.3 |
| 20260508034737 | 10 | 0 | 0.0 | 9.7 | 0.00 | 0.23 | 0.18 | 77 | 1015.3 |
| 20260508034236 | 10 | 0 | 0.0 | 9.7 | 0.00 | 0.23 | 0.18 | 77 | 1015.3 |
| 20260508033413 | 10 | 324 | 1.6 | 14.5 | 0.00 | 0.23 | 0.18 | 78 | 1015.2 |
| 20260508032913 | 10 | 324 | 1.6 | 16.1 | 0.00 | 0.23 | 0.18 | 78 | 1015.2 |
| 20260508032414 | 10 | 324 | 6.4 | 19.3 | 0.00 | 0.25 | 0.18 | 79 | 1015.0 |
| 20260508031913 | 9 | 329 | 4.8 | 27.4 | 0.00 | 0.28 | 0.18 | 80 | 1014.9 |
| 20260508031414 | 9 | 327 | 8.0 | 27.4 | 0.00 | 0.28 | 0.18 | 80 | 1014.8 |
| 20260508030105 | 9 | 321 | 6.4 | 14.5 | 0.00 | 0.33 | 0.18 | 81 | 1014.8 |
| 20260508025606 | 9 | 327 | 6.4 | 12.9 | 0.00 | 0.33 | 0.18 | 82 | 1014.7 |
| 20260508025106 | 9 | 328 | 6.4 | 17.7 | 0.00 | 0.33 | 0.18 | 81 | 1014.7 |
| 20260508024607 | 10 | 325 | 8.0 | 19.3 | 0.00 | 0.36 | 0.18 | 81 | 1014.6 |
| 20260508024106 | 10 | 319 | 9.7 | 19.3 | 0.00 | 0.36 | 0.18 | 80 | 1014.7 |
| 20260508023606 | 10 | 322 | 4.8 | 17.7 | 0.00 | 0.36 | 0.18 | 80 | 1014.5 |
| 20260508023105 | 10 | 320 | 4.8 | 17.7 | 0.00 | 0.36 | 0.18 | 80 | 1014.5 |
| 20260508022607 | 10 | 323 | 4.8 | 12.9 | 0.00 | 0.36 | 0.18 | 80 | 1014.3 |
| 20260508022104 | 10 | 322 | 3.2 | 16.1 | 0.00 | 0.36 | 0.18 | 79 | 1014.4 |
| 20260508021604 | 10 | 350 | 3.2 | 16.1 | 0.00 | 0.38 | 0.18 | 79 | 1014.3 |
| 20260508021105 | 10 | 318 | 4.8 | 14.5 | 0.00 | 0.38 | 0.18 | 78 | 1014.3 |
| 20260508020606 | 10 | 315 | 4.8 | 14.5 | 0.00 | 0.38 | 0.18 | 78 | 1014.2 |
| 20260508020104 | 10 | 335 | 6.4 | 16.1 | 0.00 | 0.38 | 0.18 | 78 | 1014.0 |
| 20260508015604 | 10 | 348 | 3.2 | 22.5 | 0.00 | 0.38 | 0.18 | 78 | 1013.8 |
| 20260508015106 | 10 | 324 | 3.2 | 22.5 | 0.00 | 0.41 | 0.18 | 79 | 1013.8 |
| 20260508014605 | 10 | 325 | 9.7 | 25.7 | 0.00 | 0.41 | 0.18 | 81 | 1013.7 |
| 20260508014106 | 10 | 316 | 8.0 | 25.7 | 0.00 | 0.41 | 0.18 | 80 | 1013.6 |
| 20260508013604 | 10 | 325 | 12.9 | 24.1 | 0.00 | 0.41 | 0.18 | 82 | 1013.6 |
| 20260508013106 | 10 | 326 | 4.8 | 17.7 | 0.00 | 0.41 | 0.18 | 82 | 1013.5 |
| 20260508012604 | 10 | 332 | 4.8 | 14.5 | 0.00 | 0.41 | 0.18 | 82 | 1013.5 |
| 20260508012104 | 10 | 324 | 4.8 | 12.9 | 0.00 | 0.41 | 0.18 | 80 | 1013.4 |
| 20260508011606 | 10 | 0 | 0.0 | 14.5 | 0.00 | 0.41 | 0.18 | 80 | 1013.3 |
| 20260508011106 | 10 | 319 | 4.8 | 17.7 | 0.00 | 0.43 | 0.18 | 80 | 1013.2 |
| 20260508010606 | 10 | 360 | 4.8 | 17.7 | 0.00 | 0.43 | 0.18 | 81 | 1013.0 |
| 20260508005735 | 10 | 0 | 0.0 | 17.7 | 0.00 | 0.43 | 0.18 | 83 | 1012.9 |
| 20260508005235 | 10 | 331 | 1.6 | 17.7 | 0.00 | 0.43 | 0.18 | 85 | 1012.8 |
| 20260508004735 | 10 | 331 | 4.8 | 20.9 | 0.00 | 0.43 | 0.18 | 85 | 1012.9 |
| 20260508004235 | 10 | 339 | 6.4 | 20.9 | 0.00 | 0.43 | 0.18 | 84 | 1012.9 |
| 20260508003735 | 10 | 0 | 0.0 | 33.8 | 0.00 | 0.43 | 0.18 | 85 | 1013.1 |
| 20260508003235 | 10 | 333 | 11.3 | 33.8 | 0.00 | 0.43 | 0.18 | 84 | 1012.8 |
| 20260508002735 | 11 | 333 | 8.0 | 24.1 | 0.00 | 0.43 | 0.18 | 84 | 1012.8 |
| 20260508002235 | 11 | 348 | 9.7 | 24.1 | 0.00 | 0.43 | 0.18 | 83 | 1012.8 |
| 20260508001735 | 11 | 323 | 9.7 | 20.9 | 0.00 | 0.43 | 0.18 | 85 | 1012.9 |
| 20260508001235 | 11 | 330 | 9.7 | 20.9 | 0.00 | 0.43 | 0.18 | 89 | 1012.9 |
| 20260508000735 | 11 | 314 | 4.8 | 14.5 | 0.00 | 0.43 | 0.18 | 92 | 1012.9 |
| 20260508000235 | 11 | 318 | 3.2 | 24.1 | 0.00 | 0.43 | 0.18 | 92 | 1012.7 |
| 20260507235735 | 11 | 325 | 3.2 | 24.1 | 0.00 | 0.43 | 0.18 | 94 | 1012.7 |
| 20260507235236 | 11 | 336 | 4.8 | 20.9 | 0.00 | 0.43 | 0.18 | 95 | 1012.7 |
| 20260507234735 | 11 | 325 | 1.6 | 19.3 | 0.00 | 0.43 | 0.18 | 96 | 1012.5 |
| 20260507234235 | 11 | 344 | 3.2 | 33.8 | 0.00 | 0.43 | 0.18 | 97 | 1012.5 |